Regional Weather Roundup
Issued by NWS Bismarck, ND

Home | Current Version | Previous Version | Text Only | Print | Product List | Glossary On
Versions: 1 2 3 4 5 6 7 8 9 10 11 12 13 14 15 16 17 18 19 20 21 22 23 24 25 26 27 28 29 30 31 32 33 34 35 36 37 38 39 40 41 42 43 44 45 46 47 48 49 50
000
ASUS43 KBIS 240610
RWRBIS

NWR BROADCAST TEXT
NATIONAL WEATHER SERVICE BISMARCK ND
100 AM CDT SUN MAY 24 2015

NOTE: "FAIR" INDICATES FEW OR NO CLOUDS BELOW 12,000 FEET WITH NO
SIGNIFICANT WEATHER AND/OR OBSTRUCTIONS TO VISIBILITY.


CITY           SKY/WX    TMP DP  RH WIND       PRES   REMARKS
WILLISTON      PTCLDY    49  42  77 CALM      30.10R
MINOT          PTCLDY    56  46  69 SW8       30.09S
MINOT AFB      PTCLDY    54  47  77 SW2       30.08S
BISMARCK       CLOUDY    55  51  86 SE5       30.11S
DICKINSON      MOCLDY    48  45  89 SE7       30.09S
GARRISON         N/A     56  47  71 CALM      30.11R
HETTINGER ARPT PTCLDY    47  45  93 NE7       30.10S
JAMESTOWN      MOCLDY    55  51  86 CALM      30.10S
BEACH          CLOUDY    50  50 100 E3        30.11F
CARRINGTON     FAIR      55  54  94 SW5       30.12R
CROSBY         FAIR      50  48  93 SW6       30.10S
HARVEY         FAIR      54  48  82 S7        30.11S
HAZEN          CLOUDY    46  45  93 CALM      30.12R
LINTON         CLOUDY    55  55 100 CALM      30.10S
MANDAN         CLOUDY    55  52  88 CALM      30.12S
OAKES            N/A     54  50  87 E8        30.09S
STANLEY        FAIR      50  50 100 CALM      30.12S
WATFORD CITY   FAIR      50  43  76 CALM      30.09S
$$

CITY           SKY/WX    TMP DP  RH WIND       PRES   REMARKS
GRAND FORKS    MOCLDY    51  45  79 CALM      30.09S
GRAND FORKS AF MOCLDY    53  46  75 SW3       30.10S
DEVILS LAKE    PTCLDY    57  46  67 CALM      30.10S
FARGO          PTCLDY    55  48  77 CALM      30.10S
CANDO          FAIR      54  45  71 SW5       30.11S
CAVALIER       FAIR      61  46  59 SW7       30.09R
GRAFTON        FAIR      55  46  71 SW7       30.10S
LANGDON        FAIR      50  43  76 SW9       30.12R
ROLLA          MOCLDY    55  45  67 SW12      30.12R
WALHALLA         N/A     61  43  51 CALM      30.09R
$$

CITY           SKY/WX    TMP DP  RH WIND       PRES   REMARKS
ABERDEEN       PTCLDY    54  49  83 N6        30.07F
MOBRIDGE       CLOUDY    57  54  89 E9        30.06S
BUFFALO          N/A     53  48  83 E9        30.01S
RAPID CITY     LGT RAIN  53  52  96 E8        30.01F FOG
GLASGOW        CLEAR     51  40  65 CALM      30.10S
SIDNEY         PTCLDY    52  45  76 CALM      30.11R
WOLF POINT     CLEAR     47  41  80 CALM      30.11R
GLENDIVE       CLOUDY    52  48  87 NW3       30.11S
MILES CITY     CLOUDY    52  50  93 NE9       30.08R
BAKER          MOCLDY    48  46  93 NE8       30.09F
$$

CITY           SKY/WX    TMP DP  RH WIND       PRES   REMARKS
BILLINGS       CLOUDY    52  45  77 NE12      30.07F
GREAT FALLS    CLOUDY    50  47  89 S3        30.11F
REGINA         CLEAR     52  32  46 W2        30.09S
ESTEVAN        PTCLDY    54  43  66 SW7       30.10R
$$



USA.gov is the U.S. government's official web portal to all federal, state and local government web resources and services.